When you browse on this site, cookies collect data to enhance your experience and personalize the content and advertising you see.
Visit our Privacy Policy to learn more. By continuing to use the site, you agree to this use of cookies and data.
  • în România
  • Lista ţărilor
  • Pe 7 zile
  • Temperatura apei
  • Meteo pe hartă
  • Widget-uri
  • user-avatar
    Intrare

    Meteo pe oră la Aylesbury

    Astăzi, 5 Decembrie, Joi

    Timp Temperatura Precipitaţii Vânt Presiune Umiditate
    00:00 +2°C° 0 mm 2 m/s 757 mmHg 93%
    01:00 +2°C° 0 mm 2 m/s 757 mmHg 93%
    02:00 +2°C° 0 mm 2 m/s 756 mmHg 94%
    03:00 +1°C° 0 mm 3 m/s 756 mmHg 94%
    04:00 +2°C° 0 mm 2 m/s 756 mmHg 94%
    05:00 +2°C° 0 mm 2 m/s 757 mmHg 95%
    06:00 +2°C° 0 mm 2 m/s 757 mmHg 95%
    07:00 +1°C° 0 mm 3 m/s 757 mmHg 95%
    08:00 +2°C° 0 mm 3 m/s 756 mmHg 96%
    09:00 +1°C° 0 mm 4 m/s 756 mmHg 96%
    10:00 +3°C° 0 mm 4 m/s 756 mmHg 92%
    11:00 +5°C° 0 mm 5 m/s 756 mmHg 87%
    12:00 +6°C° 0 mm 5 m/s 756 mmHg 84%
    13:00 +6°C° 0 mm 5 m/s 755 mmHg 84%
    14:00 +5°C° 0 mm 6 m/s 754 mmHg 83%
    15:00 +5°C° 0 mm 6 m/s 753 mmHg 83%
    16:00 +5°C° 0 mm 7 m/s 753 mmHg 81%
    17:00 +5°C° 0 mm 8 m/s 753 mmHg 80%
    18:00 +5°C° 0 mm 8 m/s 752 mmHg 79%
    19:00 +5°C° 0 mm 8 m/s 752 mmHg 80%
    20:00 +6°C° 0 mm 9 m/s 751 mmHg 81%
    21:00 +6°C° 0 mm 9 m/s 751 mmHg 82%
    22:00 +7°C° 0 mm 9 m/s 750 mmHg 84%
    23:00 +7°C° 0 mm 9 m/s 750 mmHg 86%

    Mâine, 6 Decembrie, Vineri

    Timp Temperatura Precipitaţii Vânt Presiune Umiditate
    00:00 +8°C° 0 mm 9 m/s 750 mmHg 88%
    01:00 +9°C° 0.1 mm 8 m/s 749 mmHg 88%
    02:00 +9°C° 0.1 mm 8 m/s 748 mmHg 89%
    03:00 +9°C° 0.1 mm 8 m/s 748 mmHg 90%
    04:00 +9°C° 0.2 mm 8 m/s 748 mmHg 91%
    05:00 +10°C° 0.2 mm 8 m/s 748 mmHg 91%
    06:00 +10°C° 0.2 mm 7 m/s 747 mmHg 92%
    07:00 +10°C° 0.2 mm 8 m/s 747 mmHg 92%
    08:00 +10°C° 0.2 mm 8 m/s 746 mmHg 92%
    09:00 +10°C° 0.2 mm 8 m/s 746 mmHg 92%
    10:00 +11°C° 0.1 mm 8 m/s 745 mmHg 90%
    11:00 +11°C° 0.1 mm 8 m/s 745 mmHg 88%
    12:00 +11°C° 0.1 mm 7 m/s 744 mmHg 86%
    13:00 +11°C° 0.3 mm 8 m/s 744 mmHg 85%
    14:00 +10°C° 0.3 mm 8 m/s 743 mmHg 84%
    15:00 +10°C° 0.3 mm 9 m/s 743 mmHg 83%
    16:00 +9°C° 0.2 mm 8 m/s 743 mmHg 83%
    17:00 +8°C° 0.2 mm 7 m/s 744 mmHg 84%
    18:00 +6°C° 0.2 mm 7 m/s 745 mmHg 85%
    19:00 +7°C° 0 mm 6 m/s 746 mmHg 85%
    20:00 +5°C° 0 mm 6 m/s 746 mmHg 86%
    21:00 +5°C° 0 mm 6 m/s 747 mmHg 87%
    22:00 +6°C° 0 mm 5 m/s 748 mmHg 88%
    23:00 +6°C° 0 mm 5 m/s 748 mmHg 89%

    Poimâine, 7 Decembrie, Sâmbătă

    Timp Temperatura Precipitaţii Vânt Presiune Umiditate
    00:00 +6°C° 0 mm 5 m/s 749 mmHg 90%
    01:00 +5°C° 0 mm 5 m/s 749 mmHg 91%
    02:00 +5°C° 0 mm 5 m/s 750 mmHg 91%
    03:00 +5°C° 0 mm 5 m/s 750 mmHg 92%
    04:00 +5°C° 0 mm 5 m/s 750 mmHg 92%
    05:00 +5°C° 0 mm 4 m/s 750 mmHg 92%
    06:00 +5°C° 0 mm 4 m/s 751 mmHg 92%
    07:00 +5°C° 0 mm 4 m/s 751 mmHg 91%
    08:00 +5°C° 0 mm 4 m/s 752 mmHg 91%
    09:00 +5°C° 0 mm 4 m/s 752 mmHg 91%
    10:00 +6°C° 0 mm 5 m/s 752 mmHg 88%
    11:00 +7°C° 0 mm 5 m/s 752 mmHg 84%
    12:00 +8°C° 0 mm 5 m/s 752 mmHg 81%
    13:00 +8°C° 0 mm 5 m/s 752 mmHg 83%
    14:00 +7°C° 0 mm 4 m/s 752 mmHg 86%
    15:00 +7°C° 0 mm 4 m/s 751 mmHg 88%
    16:00 +7°C° 0 mm 4 m/s 751 mmHg 90%
    17:00 +6°C° 0 mm 5 m/s 751 mmHg 91%
    18:00 +6°C° 0 mm 5 m/s 751 mmHg 93%
    19:00 +5°C° 0 mm 6 m/s 750 mmHg 93%
    20:00 +6°C° 0 mm 7 m/s 749 mmHg 93%
    21:00 +6°C° 0 mm 7 m/s 748 mmHg 93%
    22:00 +6°C° 0.1 mm 8 m/s 747 mmHg 91%
    23:00 +7°C° 0.1 mm 9 m/s 746 mmHg 89%

    8 Decembrie, Duminică

    Timp Temperatura Precipitaţii Vânt Presiune Umiditate
    00:00 +8°C° 0.1 mm 10 m/s 745 mmHg 88%
    01:00 +8°C° 0.6 mm 10 m/s 744 mmHg 89%
    02:00 +9°C° 0.6 mm 10 m/s 743 mmHg 90%
    03:00 +11°C° 0.6 mm 10 m/s 742 mmHg 92%
    04:00 +8°C° 0.1 mm 9 m/s 742 mmHg 87%
    05:00 +7°C° 0.1 mm 8 m/s 743 mmHg 82%
    06:00 +6°C° 0.1 mm 7 m/s 743 mmHg 78%
    07:00 +6°C° 0 mm 7 m/s 743 mmHg 79%
    08:00 +5°C° 0 mm 7 m/s 744 mmHg 80%
    09:00 +5°C° 0 mm 7 m/s 744 mmHg 81%
    10:00 +5°C° 0.1 mm 7 m/s 744 mmHg 80%
    11:00 +6°C° 0.1 mm 8 m/s 744 mmHg 79%
    12:00 +6°C° 0.1 mm 9 m/s 743 mmHg 78%
    13:00 +6°C° 0.3 mm 9 m/s 743 mmHg 78%
    14:00 +5°C° 0.3 mm 9 m/s 742 mmHg 79%
    15:00 +5°C° 0.3 mm 9 m/s 742 mmHg 79%
    16:00 +5°C° 0 mm 9 m/s 742 mmHg 78%
    17:00 +4°C° 0 mm 8 m/s 741 mmHg 77%
    18:00 +4°C° 0 mm 8 m/s 741 mmHg 77%
    19:00 +3°C° 0 mm 9 m/s 741 mmHg 77%
    20:00 +3°C° 0 mm 10 m/s 740 mmHg 78%
    21:00 +3°C° 0 mm 11 m/s 739 mmHg 79%
    22:00 +3°C° 0 mm 12 m/s 739 mmHg 79%
    23:00 +3°C° 0 mm 12 m/s 738 mmHg 79%

    9 Decembrie, Luni

    Timp Temperatura Precipitaţii Vânt Presiune Umiditate
    00:00 +3°C° 0 mm 12 m/s 737 mmHg 79%
    01:00 +4°C° 0.2 mm 12 m/s 737 mmHg 79%
    02:00 +4°C° 0.2 mm 12 m/s 738 mmHg 79%
    03:00 +4°C° 0.2 mm 12 m/s 738 mmHg 80%
    04:00 +4°C° 0.1 mm 13 m/s 738 mmHg 77%
    05:00 +4°C° 0.1 mm 13 m/s 739 mmHg 75%
    06:00 +4°C° 0.1 mm 13 m/s 739 mmHg 72%
    07:00 +4°C° 0 mm 13 m/s 741 mmHg 71%
    08:00 +5°C° 0 mm 13 m/s 743 mmHg 70%
    09:00 +5°C° 0 mm 12 m/s 745 mmHg 70%
    10:00 +5°C° 0 mm 12 m/s 747 mmHg 68%
    11:00 +6°C° 0 mm 11 m/s 748 mmHg 66%
    12:00 +6°C° 0 mm 11 m/s 750 mmHg 65%
    13:00 +6°C° 0 mm 9 m/s 751 mmHg 66%
    14:00 +5°C° 0 mm 8 m/s 752 mmHg 68%
    15:00 +5°C° 0 mm 7 m/s 753 mmHg 70%
    16:00 +4°C° 0 mm 6 m/s 754 mmHg 72%
    17:00 +4°C° 0 mm 6 m/s 755 mmHg 74%
    18:00 +3°C° 0 mm 5 m/s 756 mmHg 77%
    19:00 +4°C° 0 mm 4 m/s 756 mmHg 80%
    20:00 +4°C° 0 mm 4 m/s 756 mmHg 83%
    21:00 +3°C° 0 mm 3 m/s 757 mmHg 87%
    22:00 +3°C° 0 mm 3 m/s 756 mmHg 88%
    23:00 +3°C° 0 mm 3 m/s 756 mmHg 90%

    10 Decembrie, Marţi

    Timp Temperatura Precipitaţii Vânt Presiune Umiditate
    00:00 +3°C° 0 mm 3 m/s 756 mmHg 92%
    01:00 +4°C° 0.2 mm 4 m/s 755 mmHg 92%
    02:00 +5°C° 0.2 mm 5 m/s 754 mmHg 92%
    03:00 +4°C° 0.2 mm 6 m/s 753 mmHg 92%
    04:00 +5°C° 1.2 mm 6 m/s 752 mmHg 92%
    05:00 +5°C° 1.2 mm 7 m/s 750 mmHg 92%
    06:00 +6°C° 1.2 mm 8 m/s 748 mmHg 92%
    07:00 +7°C° 1.8 mm 9 m/s 747 mmHg 92%
    08:00 +8°C° 1.8 mm 9 m/s 745 mmHg 93%
    09:00 +8°C° 1.8 mm 10 m/s 744 mmHg 93%
    10:00 +9°C° 0.7 mm 10 m/s 743 mmHg 92%
    11:00 +11°C° 0.7 mm 10 m/s 742 mmHg 91%
    12:00 +12°C° 0.7 mm 10 m/s 741 mmHg 90%
    13:00 +12°C° 0.1 mm 11 m/s 740 mmHg 89%
    14:00 +12°C° 0.1 mm 11 m/s 739 mmHg 87%
    15:00 +12°C° 0.1 mm 12 m/s 737 mmHg 86%
    16:00 +10°C° 0.3 mm 12 m/s 737 mmHg 84%
    17:00 +9°C° 0.3 mm 12 m/s 737 mmHg 82%
    18:00 +8°C° 0.3 mm 11 m/s 737 mmHg 80%
    19:00 +7°C° 0.1 mm 10 m/s 739 mmHg 79%
    20:00 +5°C° 0.1 mm 9 m/s 740 mmHg 77%
    21:00 +4°C° 0.1 mm 8 m/s 741 mmHg 76%
    22:00 +4°C° 0 mm 8 m/s 742 mmHg 76%
    23:00 +2°C° 0 mm 8 m/s 742 mmHg 76%
    Arată mai mult